Flag for Hungary Weather past 2 weeks in Budapest, Hungary

Now
32 °F

Sunny.


Feels Like: 26 °F
Forecast: 41 / 51 °F
Wind: 6 mph from Southwest

Location: Ferenc Liszt International Airport

Current Time: Dec 22, 2014 at 8:55:37 AM

Latest Report: Dec 22, 2014 at 8:30 AM


Visibility: 10 mi

Pressure: 30.21 "Hg

Humidity: 87%

Dew point: 28 °F

Location of BudapestLocation

Historic Weather in Budapest — Graph

°F

Budapest temperature yesterday

Maximum temperature yesterday: 45 °F (at 1:00 AM)
Minimum temperature yesterday: 39 °F (at 7:00 AM)
Average temperature yesterday: 43 °F

Past Weeks' High & Low Weather Summary

 TemperatureHumidityPressure
High55 °F (Dec 19, 1:30 PM)100% (Dec 7, 7:00 AM)30.39 "Hg (Dec 7, 7:00 AM)
Low25 °F (Dec 14, 7:00 AM)40% (Dec 20, 1:30 PM)29.83 "Hg (Dec 17, 1:30 AM)
Average39 °F86%30.08 "Hg
* Reported Dec 7 7:00 AM — Dec 22 7:30 AM, Budapest, Weather by CustomWeather, © 2014

Note: Actual official high and low records may vary slightly from our data, if they occured in-between our weather recording intervals... More about our weather records

Advertising

Budapest weather history for previous 24 hours

 ConditionsComfort  
Time TempWeatherWind HumidityBarometerVisibility
7:30 AM
Dec 22
34 °FSunny.7 mph81%30.21 "Hg10 mi
7:00 AM34 °FPassing clouds.5 mph81%30.21 "HgN/A
6:30 AM32 °FClear.6 mph80%30.21 "Hg10 mi
6:00 AM32 °FClear.2 mph80%30.21 "Hg10 mi
5:30 AM34 °FClear.1 mph81%30.24 "Hg10 mi
4:30 AM34 °FClear.8 mph87%30.24 "Hg10 mi
4:00 AM36 °FClear.5 mph81%30.27 "Hg10 mi
3:30 AM37 °FClear.7 mph75%30.27 "Hg10 mi
3:00 AM37 °FClear.10 mph75%30.27 "Hg10 mi
2:30 AM39 °FClear.12 mph70%30.30 "Hg10 mi
2:00 AM41 °FClear.14 mph66%30.30 "Hg10 mi
1:30 AM43 °FPassing clouds.13 mph61%30.33 "HgN/A
1:00 AM43 °FClear.10 mph66%30.33 "Hg10 mi
12:30 AM41 °FClear.9 mph66%30.33 "Hg10 mi
12:00 AM41 °FClear.12 mph70%30.33 "Hg10 mi
11:30 PM
Dec 21
39 °FClear.13 mph75%30.36 "Hg10 mi
10:30 PM41 °FClear.12 mph66%30.36 "Hg10 mi
10:00 PM41 °FClear.9 mph66%30.36 "Hg10 mi
9:30 PM39 °FClear.8 mph65%30.36 "Hg10 mi
9:00 PM41 °FClear.7 mph61%30.39 "Hg10 mi
8:30 PM41 °FClear.9 mph66%30.36 "Hg10 mi
8:00 PM41 °FClear.9 mph66%30.36 "Hg10 mi
7:30 PM41 °FClear.7 mph61%30.36 "Hg10 mi
7:00 PM43 °FClear.12 mph57%30.36 "Hg10 mi
6:30 PM43 °FClear.16 mph57%30.36 "Hg10 mi
6:00 PM41 °FClear.20 mph61%30.36 "Hg10 mi
5:30 PM43 °FClear.23 mph57%30.33 "Hg10 mi
5:00 PM43 °FClear.18 mph57%30.33 "Hg10 mi
4:30 PM43 °FClear.16 mph57%30.30 "Hg10 mi
4:00 PM43 °FClear.23 mph57%30.30 "Hg10 mi
3:30 PM45 °FScattered clouds.26 mph53%30.30 "HgN/A
3:00 PM45 °FScattered clouds.25 mph57%30.30 "HgN/A
2:30 PM45 °FScattered clouds.24 mph57%30.30 "HgN/A
2:00 PM45 °FBroken clouds.21 mph53%30.30 "HgN/A
1:30 PM45 °FBroken clouds.24 mph53%30.30 "HgN/A
1:00 PM45 °FPartly sunny.22 mph53%30.27 "HgN/A
12:30 PM45 °FPassing clouds.20 mph53%30.24 "HgN/A
12:00 PM45 °FPassing clouds.22 mph53%30.24 "HgN/A
11:30 AM45 °FPassing clouds.28 mph53%30.24 "HgN/A
11:00 AM43 °FPassing clouds.30 mph57%30.24 "HgN/A
10:30 AM43 °FPassing clouds.32 mph57%30.24 "HgN/A
10:00 AM43 °FSunny.31 mph53%30.21 "Hg10 mi
9:30 AM43 °FSunny.28 mph53%30.21 "Hg10 mi
9:00 AM41 °FSunny.26 mph61%30.21 "Hg10 mi
8:30 AM41 °FSunny.28 mph61%30.18 "Hg10 mi
8:00 AM41 °FSunny.29 mph66%30.18 "Hg10 mi
Weather by CustomWeather, © 2014

See weather overviewHow to use our weather pages